This demonstration page uses our WeatherBlox Daily Observations layout. Learn more.

Left ArrowRight Arrow

39.51506, -84.39828

Hourly Observations for September 7, 2020

Temp ( °F °C ) Dew Point ( °F °C ) Humidity (%) Winds ( mph kmh ) Pressure ( in mb ) Visibility ( mi km ) Precip ( " mm )
12:15 am 00:15 Clear 66 18.8 62 16.5 87 87 SW 3 6 30.02 1017 10 16.0934 0 0
12:35 am 00:35 Clear 65 18.5 62 16.6 89 89 SSW 5 7 30.02 1017 10 16.0934 0 0
12:55 am 00:55 Clear 65 18.3 62 16.5 89 89 SW 5 7 30.02 1017 10 16.0934 0 0
1:15 am 01:15 Clear 63 17.2 62 16.5 96 96 SW 5 7 30.01 1016 10 16.0934 0 0
1:35 am 01:35 Clear 61 16.3 60 15.7 96 96 SSW 5 7 30.01 1016 10 16.0934 0 0
1:55 am 01:55 Clear 63 17.3 61 16.2 93 93 SSW 5 7 30 1016 10 16.0934 0 0
2:15 am 02:15 Clear 64 17.6 60 15.7 89 89 SW 3 6 29.99 1016 10 16.0934 0 0
2:35 am 02:35 Clear 64 17.5 61 16 91 91 SW 3 6 29.99 1016 10 16.0934 0 0
2:55 am 02:55 Clear 64 17.5 59 15 85 85 SSW 5 7 29.98 1015 10 16.0934 0 0
3:15 am 03:15 Clear 64 17.5 59 14.8 84 84 SW 6 9 29.97 1015 10 16.0934 0 0
3:35 am 03:35 Clear 64 17.7 59 15.1 85 85 SW 7 11 29.97 1015 10 16.0934 0 0
3:55 am 03:55 Clear 64 17.9 59 15.1 84 84 SW 8 13 29.96 1015 10 16.0934 0 0
4:15 am 04:15 Clear 64 17.6 59 15.1 85 85 SSW 6 9 29.95 1014 10 16.0934 0 0
4:35 am 04:35 Clear 64 17.5 59 15 85 85 SSW 6 9 29.94 1014 10 16.0934 0 0
4:55 am 04:55 Clear 64 17.6 59 14.8 84 84 SSW 7 11 29.94 1014 10 16.0934 0 0
5:15 am 05:15 Clear 64 17.9 59 15 83 83 SW 6 9 29.93 1014 10 16.0934 0 0
5:35 am 05:35 Clear 64 17.5 59 15.1 86 86 SW 8 13 29.93 1014 10 16.0934 0 0
5:55 am 05:55 Clear 62 16.9 58 14.7 87 87 SW 5 7 29.93 1014 10 16.0934 0 0
6:15 am 06:15 Clear 65 18.2 59 14.9 81 81 SSW 8 13 29.93 1014 10 16.0934 0 0
6:35 am 06:35 Clear 67 19.2 59 15 77 77 SSW 10 17 29.93 1013 10 16.0934 0 0
6:55 am 06:55 Clear 66 19 59 14.9 77 77 SW 9 15 29.93 1013 10 16.0934 0 0
7:15 am 07:15 Sunny 67 19.2 59 14.9 76 76 SSW 9 15 29.93 1013 10 16.0934 0 0
7:35 am 07:35 Sunny 67 19.3 59 15 76 76 SW 7 11 29.93 1013 10 16.0934 0 0
7:55 am 07:55 Sunny 68 20 59 15.1 74 74 SSW 9 15 29.92 1013 10 16.0934 0 0
8:15 am 08:15 Sunny 69 20.5 59 15.2 72 72 SW 9 15 29.93 1014 10 16.0934 0 0
8:35 am 08:35 Sunny 70 21.2 60 15.3 69 69 SSW 13 20 29.93 1014 10 16.0934 0 0
8:55 am 08:55 Sunny 71 21.8 60 15.6 68 68 SW 12 19 29.93 1014 10 16.0934 0 0
9:15 am 09:15 Sunny 72 22.3 60 15.7 66 66 SW 13 20 29.93 1014 10 16.0934 0 0
9:35 am 09:35 Sunny 73 22.9 61 15.9 65 65 SW 13 20 29.93 1013 10 16.0934 0 0
9:55 am 09:55 Sunny 73 22.9 61 16.2 66 66 SSW 14 22 29.93 1013 10 16.0934 0 0
10:15 am 10:15 Sunny 76 24.2 62 16.5 62 62 SW 12 19 29.92 1013 10 16.0934 0 0
10:35 am 10:35 Sunny 77 25.1 62 16.9 60 60 SW 15 24 29.92 1013 10 16.0934 0 0
10:55 am 10:55 Sunny 78 25.6 62 16.9 59 59 SSW 15 24 29.91 1013 10 16.0934 0 0
11:15 am 11:15 Sunny 79 26.1 63 17.2 58 58 SSW 13 20 29.91 1013 10 16.0934 0 0
11:35 am 11:35 Sunny 80 26.8 64 17.5 57 57 SW 17 28 29.9 1012 10 16.0934 0 0
11:55 am 11:55 Sunny 81 27.4 64 17.9 56 56 SSW 16 26 29.9 1012 10 16.0934 0 0
12:15 pm 12:15 Sunny 83 28.3 65 18.5 55 55 SW 14 22 29.9 1012 10 16.0934 0 0
12:35 pm 12:35 Sunny 84 28.8 66 18.8 55 55 SW 14 22 29.88 1012 10 16.0934 0 0
12:55 pm 12:55 Sunny 85 29.3 66 19.1 54 54 SSW 17 28 29.88 1012 10 16.0934 0 0
1:15 pm 13:15 Sunny with Nearby Thunderstorms 86 29.8 67 19.4 54 54 WSW 13 20 29.88 1012 10 16.0934 0 0
1:35 pm 13:35 Sunny 86 30.1 67 19.6 53 53 SSW 15 24 29.87 1012 10 16.0934 0 0
1:55 pm 13:55 Sunny 87 30.4 67 19.6 52 52 SSW 15 24 29.87 1012 10 16.0934 0 0
2:15 pm 14:15 Partly Cloudy 87 30.5 68 20 53 53 SSW 15 24 29.86 1011 10 16.0934 0 0
2:35 pm 14:35 Partly Cloudy 88 31 68 20.1 52 52 SSW 20 31 29.85 1011 10 16.0934 0 0
2:55 pm 14:55 Partly Cloudy 88 30.9 68 20.2 53 53 SSW 15 24 29.84 1010 10 16.0934 0 0
3:15 pm 15:15 Sunny 87 30.8 68 20.1 53 53 SSW 16 26 29.84 1011 10 16.0934 0 0
3:35 pm 15:35 Sunny 88 30.9 68 20.2 53 53 SSW 16 26 29.84 1010 10 16.0934 0 0
3:55 pm 15:55 Partly Cloudy 88 31.3 68 20.2 52 52 SSW 18 30 29.84 1010 10 16.0934 0 0
4:15 pm 16:15 Sunny 88 31.2 68 20.2 52 52 SSW 15 24 29.84 1010 10 16.0934 0 0
4:35 pm 16:35 Sunny with Nearby Thunderstorms 87 30.4 68 20.2 54 54 SSW 15 24 29.82 1010 10 16.0934 0 0
4:55 pm 16:55 Sunny 86 30.1 68 20 55 55 SSW 18 30 29.81 1010 10 16.0934 0 0
5:15 pm 17:15 Sunny with Nearby Thunderstorms 85 29.7 68 20.1 56 56 SW 15 24 29.82 1010 10 16.0934 0 0
5:35 pm 17:35 Partly Cloudy with Nearby Thunderstorms 87 30.4 69 20.4 55 55 SSW 15 24 29.81 1010 10 16.0934 0 0
5:55 pm 17:55 Partly Cloudy 86 29.9 68 20 55 55 SSW 13 20 29.83 1010 10 16.0934 0 0
6:15 pm 18:15 Mostly Cloudy 85 29.3 68 19.9 57 57 SSW 16 26 29.84 1011 10 16.0934 0 0
6:35 pm 18:35 Partly Cloudy with Nearby Thunderstorms 84 28.7 68 19.9 59 59 SSW 16 26 29.84 1011 10 16.0934 0 0
6:55 pm 18:55 Sunny with Nearby Thunderstorms 83 28.3 68 20 61 61 SW 10 17 29.85 1011 10 16.0934 0 0
7:15 pm 19:15 Sunny 83 28.1 68 20 61 61 SSW 9 15 29.87 1011 10 16.0934 0 0
7:35 pm 19:35 Cloudy with Thunderstorms 83 28.1 68 19.8 61 61 SSW 13 20 29.87 1011 10 16.0934 0 0
7:55 pm 19:55 Cloudy with Nearby Thunderstorms 82 27.9 68 19.8 61 61 S 10 17 29.88 1012 10 16.0934 0 0
8:15 pm 20:15 Cloudy 81 27.4 67 19.6 62 62 S 6 9 29.88 1012 10 16.0934 0 0
8:35 pm 20:35 Mostly Cloudy 82 27.5 67 19.5 62 62 S 8 13 29.91 1013 10 16.0934 0 0
8:55 pm 20:55 Mostly Cloudy 81 27.3 67 19.5 62 62 S 8 13 29.92 1013 10 16.0934 0 0
9:15 pm 21:15 Clear 81 27.1 67 19.5 63 63 SSW 8 13 29.91 1013 10 16.0934 0 0
9:35 pm 21:35 Clear with Nearby Thunderstorms 80 26.8 67 19.6 65 65 S 9 15 29.91 1013 10 16.0934 0 0
9:55 pm 21:55 Clear 80 26.6 67 19.6 66 66 S 14 22 29.89 1012 10 16.0934 0 0
10:15 pm 22:15 Clear 79 26.3 67 19.5 66 66 S 14 22 29.88 1012 10 16.0934 0 0
10:35 pm 22:35 Clear with Nearby Thunderstorms 79 25.9 67 19.6 68 68 S 13 20 29.88 1012 10 16.0934 0 0
10:55 pm 22:55 Clear 78 25.8 67 19.5 68 68 S 6 9 29.9 1013 10 16.0934 0 0
11:15 pm 23:15 Clear 78 25.6 67 19.4 69 69 SSW 6 9 29.92 1013 10 16.0934 0 0
11:35 pm 23:35 Partly Cloudy 77 25.2 67 19.5 71 71 S 6 9 29.94 1014 10 16.0934 0 0
11:55 pm 23:55 Clear 78 25.3 67 19.3 69 69 S 9 15 29.93 1014 10 16.0934 0 0

Powered by AerisWeather